Location: Acheville
(50.3840°N, 2.8827°E)
Time: 14:43:30
(UTC+00:00)

Cosmos 1408 - Pass Details

Date: 24 October 2021
Orbit: 465 x 490 km, 82.6° (Epoch: 15 November)

Event Time Altitude Azimuth Distance (km) Brightness Sun altitude
Rises 17:27:44 0° 3° (N) 2,541 6.1 -8.4°
Reaches altitude 10° 17:30:23 10° 23° (NNE) 1,651 5.0 -8.9°
Maximum altitude 17:32:52 17° 67° (ENE) 1,251 4.0 -9.3°
Enters shadow 17:35:04 11° 108° (ESE) 1,561 4.6 -9.6°
